Carnival Splendor — 3EUS — position and weather

sailwx.info

Track history (hours):
 
Tides and Currents Weather Stations Pressure Air Temp Water Temp Dewpoint Dewpoint Depression Visibility Wind Speed Wind Dir Waves Ship Positions

Carnival Splendor

Last reported at 2016-Nov-29 22:33 UTC. Time now 2016-Dec-03 19:37 UTC.
Position N 20°28' W 087°01'.

Length 290 m; draft 8.3 m.

Type: Ship. MMSI: 372808000.

Date/timePositionNaut miles runAvg speedWind from/ knotsBaromVisibWave heightAir tempDewpointWater temp
2016-Nov-29 22:33N 20°28' W 087°01'3 2.7
2016-Nov-29 21:33N 20°29' W 086°59'0 0.0
2016-Nov-29 20:33N 20°29' W 086°59'0 0.0
2016-Nov-29 19:32N 20°29' W 086°59'0 0.0
2016-Nov-29 18:32N 20°29' W 086°59'0 0.0
2016-Nov-29 17:31N 20°29' W 086°59'0 0.0
2016-Nov-29 16:31N 20°29' W 086°59'0 0.0
2016-Nov-29 15:33N 20°29' W 086°59'0 0.0
2016-Nov-29 14:33N 20°29' W 086°59'0 0.0
2016-Nov-29 13:33N 20°29' W 086°59'49213.5
2016-Nov-28 01:15N 25°28' W 079°55'1014.8
2016-Nov-28 00:34N 25°38' W 079°57'1211.7
2016-Nov-27 23:33N 25°45' W 080°07'3 3.1
2016-Nov-27 22:31N 25°47' W 080°10'0 0.0
2016-Nov-27 21:33N 25°47' W 080°10'0 0.0
2016-Nov-27 20:33N 25°47' W 080°10'0 0.0
2016-Nov-27 19:32N 25°47' W 080°10'0 0.0
2016-Nov-27 18:32N 25°47' W 080°10'0 0.0
2016-Nov-27 17:32N 25°47' W 080°10'0 0.0
2016-Nov-27 16:31N 25°47' W 080°10'0 0.0
2016-Nov-27 15:31N 25°47' W 080°10'0 0.0
2016-Nov-27 14:31N 25°47' W 080°10'0 0.0
2016-Nov-27 13:33N 25°47' W 080°10'0 0.0
2016-Nov-27 12:33N 25°47' W 080°10'0 0.0
2016-Nov-27 11:33N 25°47' W 080°10'2 2.0
2016-Nov-27 10:33N 25°46' W 080°08'10 9.8
2016-Nov-27 09:33N 25°44' W 079°58'1717.4
2016-Nov-27 08:33N 25°27' W 079°51'  
2016-Nov-20 01:33N 26°08' W 079°27'3618.0
2016-Nov-19 23:33N 25°49' W 080°00'9 9.4
2016-Nov-19 22:33N 25°47' W 080°11'  
Track history (hours):
 
Tides and Currents Weather Stations Pressure Air Temp Water Temp Dewpoint Dewpoint Depression Visibility Wind Speed Wind Dir Waves Ship Positions

Carnival Splendor

Last reported at 2016-Nov-29 22:33 UTC. Time now 2016-Dec-03 19:37 UTC.
Position N 20°28' W 087°01'.

Length 290 m; draft 8.3 m.

Type: Ship. MMSI: 372808000.

Date/timePositionNaut miles runAvg speedWind from/ knotsBaromVisibWave heightAir tempDewpointWater temp
2016-Nov-29 22:33N 20°28' W 087°01'3 2.7
2016-Nov-29 21:33N 20°29' W 086°59'0 0.0
2016-Nov-29 20:33N 20°29' W 086°59'0 0.0
2016-Nov-29 19:32N 20°29' W 086°59'0 0.0
2016-Nov-29 18:32N 20°29' W 086°59'0 0.0
2016-Nov-29 17:31N 20°29' W 086°59'0 0.0
2016-Nov-29 16:31N 20°29' W 086°59'0 0.0
2016-Nov-29 15:33N 20°29' W 086°59'0 0.0
2016-Nov-29 14:33N 20°29' W 086°59'0 0.0
2016-Nov-29 13:33N 20°29' W 086°59'49213.5
2016-Nov-28 01:15N 25°28' W 079°55'1014.8
2016-Nov-28 00:34N 25°38' W 079°57'1211.7
2016-Nov-27 23:33N 25°45' W 080°07'3 3.1
2016-Nov-27 22:31N 25°47' W 080°10'0 0.0
2016-Nov-27 21:33N 25°47' W 080°10'0 0.0
2016-Nov-27 20:33N 25°47' W 080°10'0 0.0
2016-Nov-27 19:32N 25°47' W 080°10'0 0.0
2016-Nov-27 18:32N 25°47' W 080°10'0 0.0
2016-Nov-27 17:32N 25°47' W 080°10'0 0.0
2016-Nov-27 16:31N 25°47' W 080°10'0 0.0
2016-Nov-27 15:31N 25°47' W 080°10'0 0.0
2016-Nov-27 14:31N 25°47' W 080°10'0 0.0
2016-Nov-27 13:33N 25°47' W 080°10'0 0.0
2016-Nov-27 12:33N 25°47' W 080°10'0 0.0
2016-Nov-27 11:33N 25°47' W 080°10'2 2.0
2016-Nov-27 10:33N 25°46' W 080°08'10 9.8
2016-Nov-27 09:33N 25°44' W 079°58'1717.4
2016-Nov-27 08:33N 25°27' W 079°51'  
2016-Nov-20 01:33N 26°08' W 079°27'3618.0
2016-Nov-19 23:33N 25°49' W 080°00'9 9.4
2016-Nov-19 22:33N 25°47' W 080°11'  

Dump ship's entire track history